Home   Weather   Espoo   Past weeks

Flag for Finland Past Weather in Espoo, Finland — Yesterday and Last 2 Weeks

Now
48 °F

Passing clouds.


Feels Like: 46 °F
Forecast: 40 / 59 °F
Wind: 5 mph from Southwest

Location: Helsinki-Vantaa

Current Time: Sep 25, 2016 at 1:40:05 AM

Latest Report: Sep 25, 2016 at 12:50 AM


Visibility: N/A

Pressure: 30.18 "Hg

Humidity: 82%

Dew Point: 43 °F

Location of EspooLocation

Past Weather in Espoo — Graph

°F

Espoo Temperature Yesterday

Maximum temperature yesterday: 52 °F (at 12:50 PM)
Minimum temperature yesterday: 43 °F (at 4:20 AM)
Average temperature yesterday: 48 °F

High & Low Weather Summary for the Past Weeks

 TemperatureHumidityPressure
High70 °F (Sep 11, 1:50 PM)100% (Sep 10, 4:20 AM)30.24 "Hg (Sep 10, 4:20 AM)
Low36 °F (Sep 19, 4:20 AM)43% (Sep 12, 4:20 PM)29.86 "Hg (Sep 24, 2:20 AM)
Average52 °F81%30.09 "Hg
* Reported Sep 10 12:20 AM — Sep 25 12:20 AM, Espoo, Weather by CustomWeather, © 2016

Note: Actual official high and low records may vary slightly from our data, if they occured in-between our weather recording intervals... More about our weather records

Advertising

Espoo Weather History for the Previous 24 Hours

Scroll right to see more
 ConditionsComfort  
Time TempWeatherWind HumidityBarometerVisibility
12:20 AM
Sun, Sep 25
48 °FPassing clouds.5 mph82%30.15 "HgN/A
11:50 PM
Sat, Sep 24
48 °FPassing clouds.5 mph82%30.15 "HgN/A
11:20 PM48 °FPassing clouds.3 mph82%30.15 "HgN/A
10:50 PM48 °FPassing clouds.2 mph82%30.15 "HgN/A
10:20 PM48 °FPassing clouds.5 mph82%30.15 "HgN/A
9:50 PM48 °FPassing clouds.5 mph82%30.15 "HgN/A
9:20 PM48 °FOvercast.5 mph82%30.12 "HgN/A
8:50 PM48 °FOvercast.3 mph76%30.12 "HgN/A
8:20 PM50 °FPassing clouds.6 mph71%30.12 "HgN/A
7:50 PM50 °FOvercast.7 mph71%30.12 "HgN/A
7:20 PM50 °FOvercast.7 mph71%30.12 "HgN/A
6:50 PM50 °FOvercast.9 mph71%30.09 "HgN/A
6:20 PM50 °FPartly sunny.9 mph76%30.09 "HgN/A
5:50 PM52 °FPartly sunny.7 mph72%30.07 "HgN/A
5:20 PM52 °FPartly sunny.7 mph72%30.07 "HgN/A
4:50 PM52 °FBroken clouds.8 mph67%30.07 "HgN/A
4:20 PM52 °FBroken clouds.9 mph72%30.07 "HgN/A
3:50 PM52 °FBroken clouds.9 mph72%30.04 "HgN/A
3:20 PM52 °FPartly sunny.9 mph72%30.04 "HgN/A
2:50 PM52 °FPartly sunny.10 mph67%30.04 "HgN/A
2:20 PM52 °FPartly sunny.13 mph67%30.04 "HgN/A
1:50 PM52 °FPartly sunny.13 mph67%30.01 "HgN/A
1:20 PM50 °FPartly sunny.12 mph71%30.01 "HgN/A
12:50 PM52 °FPartly sunny.10 mph67%29.98 "HgN/A
12:20 PM50 °FPartly sunny.12 mph71%29.98 "HgN/A
11:50 AM50 °FPartly sunny.12 mph71%29.98 "HgN/A
11:20 AM48 °FPartly sunny.12 mph76%29.98 "HgN/A
10:50 AM48 °FPartly sunny.13 mph76%29.95 "HgN/A
10:20 AM46 °FPartly sunny.13 mph82%29.95 "HgN/A
9:50 AM46 °FPartly sunny.10 mph82%29.95 "HgN/A
9:20 AM45 °FPartly sunny.9 mph81%29.95 "HgN/A
8:50 AM45 °FPartly sunny.8 mph81%29.92 "HgN/A
8:20 AM45 °FPartly sunny.8 mph81%29.92 "HgN/A
7:50 AM43 °FPartly sunny.10 mph87%29.92 "HgN/A
7:20 AM43 °FPartly sunny.12 mph87%29.89 "HgN/A
6:50 AM43 °FPassing clouds.12 mph87%29.89 "HgN/A
6:20 AM43 °FPassing clouds.10 mph87%29.89 "HgN/A
5:50 AM43 °FPassing clouds.9 mph87%29.89 "HgN/A
5:20 AM43 °FPassing clouds.8 mph87%29.89 "HgN/A
4:50 AM43 °FPassing clouds.8 mph87%29.86 "HgN/A
4:20 AM43 °FPassing clouds.8 mph87%29.89 "HgN/A
3:50 AM45 °FPassing clouds.9 mph81%29.89 "HgN/A
3:20 AM45 °FPassing clouds.7 mph81%29.89 "HgN/A
2:50 AM45 °FPassing clouds.8 mph81%29.86 "HgN/A
2:20 AM45 °FPassing clouds.8 mph81%29.86 "HgN/A
1:50 AM45 °FPassing clouds.8 mph81%29.89 "HgN/A
1:20 AM46 °FPassing clouds.9 mph76%29.89 "HgN/A
Weather by CustomWeather, © 2016

See weather overviewHow to use our weather pages